AirNav   Pilot Hours Calculator
 
 950 users online  

7F7 Clifton Municipal Airport/Isenhower Field
Clifton, Texas, USA

GOING TO CLIFTON?


FAA INFORMATION EFFECTIVE 25 MARCH 2021

Location

FAA Identifier: 7F7
Lat/Long: 31-49-01.6800N 097-34-10.4500W
31-49.028000N 097-34.174167W
31.8171333,-97.5695694
(estimated)
Elevation: 760 ft. / 232 m (estimated)
Variation: 07E (1985)
From city: 2 miles N of CLIFTON, TX
Time zone: UTC -5 (UTC -6 during Standard Time)
Zip code: 76634

Airport Operations

Airport use: Open to the public
Activation date: 05/1966
Control tower: no
ARTCC: FORT WORTH CENTER
FSS: FORT WORTH FLIGHT SERVICE STATION
NOTAMs facility: FTW (NOTAM-D service available)
Attendance: MON-FRI 0800-1630
FOR ARPT ATTENDANT ON SAT & SUN CALL 254-978-0020 OR 254-253-0859; AFT HR FEE.
Wind indicator: lighted
Segmented circle: no
Lights: DUSK-DAWN. MIRL RY 14/32 PRESET LOW INTST; TO INCR INTST ACTVT - CTAF.
Beacon: white-green (lighted land airport)
Operates sunset to sunrise.

Airport Communications

CTAF/UNICOM: 122.8

Nearby radio navigation aids

VOR radial/distance  VOR name  Freq  Var
ACTr292/17.9WACO VORTAC115.3009E

 
NDB name  Hdg/Dist  Freq  Var  ID
ROBINSON303/31.740003EROB .-. --- -...

Airport Services

Fuel available: 100LL
Parking: hangars and tiedowns
Airframe service: MAJOR
Powerplant service: MAJOR
Bottled oxygen: HIGH

Runway Information

Runway 14/32

Dimensions: 3000 x 50 ft. / 914 x 15 m
Surface: asphalt, in fair condition
Weight bearing capacity: 
Single wheel: 13.0
Runway edge lights: medium intensity
RUNWAY 14  RUNWAY 32
Latitude: 31-49.238333N31-48.817500N
Longitude: 097-34.326667W097-34.021667W
Elevation: 756.0 ft.748.0 ft.
Traffic pattern: leftleft
Runway heading: 142 magnetic, 149 true322 magnetic, 329 true
Displaced threshold: no150 ft.
Markings: basic, in good conditionbasic, in good condition
Visual slope indicator: 2-light PAPI on left (3.00 degrees glide path)2-light PAPI on right (3.00 degrees glide path)
Obstructions: 160 ft. hill, 5500 ft. from runway, 33:1 slope to clear30 ft. trees, 201 ft. from runway, 56 ft. left of centerline
8 FT FENCE 190 FT FM THLD ON EXTNDD CNTRLN.

Airport Ownership and Management from official FAA records

Ownership: Publicly-owned
Owner: CITY OF CLIFTON
PO BOX 231
CLIFTON, TX 76634
Phone 254-675-8337
Manager: TIM TALLEY
PO BOX 249
CLIFTON, TX 76634
Phone 254-675-3771

Airport Operational Statistics

Aircraft based on the field: 9
Single engine airplanes: 8
Helicopters: 1
    
Aircraft operations: avg 123/week *
75% local general aviation
25% transient general aviation
* for 12-month period ending 31 December 2018

Additional Remarks

STEEP DROP OFF NORTH OF RWY 14.
GRVL ON NE END OF TWY.
RY 14 HAS WATER PONDING AT END OF RY AFT HVY RAIN.
SECURITY GATE LOCKED AFTER HRS. FOR ACCESS CONTACT 254-675-6620.
FOR CD CTC FORT WORTH ARTCC AT 817-858-7584.

Instrument Procedures

There are no published instrument procedures at 7F7.

Some nearby airports with instrument procedures:

KACT - Waco Regional Airport (21 nm SE)
KPWG - Mc GregorExecutive Airport (24 nm SE)
KCNW - TSTC Waco Airport (27 nm SE)
KINJ - Hillsboro Municipal Airport (29 nm NE)
KMNZ - Hamilton Municipal Airport (31 nm W)
 
Loc | Ops | Rwys | IFR | FBO | Links
Com | Nav | Svcs | Stats | Notes

City of Fort Worth
 
Area around 7F7 (Clifton Municipal Airport/Isenhower Field)
 
Road maps at: MapQuest Bing Google
 
Aerial photo
WARNING: Photo may not be current or correct
Aerial photo of 7F7 (Clifton Municipal Airport/Isenhower Field)
Photo by Bill Gunn, Texas DOT Aviation Division
Photo taken 27-Oct-2005

Do you have a better or more recent aerial photo of Clifton Municipal Airport/Isenhower Field that you would like to share? If so, please send us your photo.

 
Sectional chart

 
Airport distance calculator
Flying to Clifton Municipal Airport/Isenhower Field? Find the distance to fly.

From to 7F7

Sunrise and sunset
Times for 18-Apr-2021
 Local
(UTC-5)
 Zulu
(UTC)
Morning civil twilight06:3411:34
Sunrise06:5911:59
Sunset20:0001:00
Evening civil twilight20:2501:25

Current date and time
Zulu (UTC)  18-Apr-2021 13:06:00
Local (UTC-5)  18-Apr-2021 08:06:00
 
METAR
KACT 
21nm SE 
181251Z 33006KT 10SM CLR 08/05 A3019 RMK AO2 SLP221 T00780050
KPWG 
25nm SE 
181256Z AUTO 31006KT 10SM CLR 08/05 A3020 RMK AO2 SLP228 T00780050
KGOP 
26nm SW 
181255Z AUTO 32005KT 10SM CLR 07/05 A3021 RMK AO2
KCNW 
28nm SE 
181255Z 31005KT 10SM SKC 08/05 A3020
KINJ 
29nm NE 
181255Z AUTO 34004KT 10SM CLR 07/07 A3019 RMK AO2 T00700070
KMNZ 
31nm W 
181255Z AUTO 31007KT 10SM CLR 07/07 A3021 RMK AO2 T00670066
KCPT 
33nm N 
181255Z AUTO 31004KT 10SM CLR 07/05 A3020 RMK A01
KSEP 
39nm NW 
181255Z AUTO 31005KT 10SM CLR 05/03 A3022 RMK AO2 T00520034
KGDJ 
40nm N 
AWOS-3 118.925 817-573-7514
181255Z AUTO 29003KT 10SM CLR 06/04 A3022 RMK AO2 T00610044
KHLR 
42nm S 
181158Z AUTO 35006KT 10SM BKN190 07/05 A3018 RMK AO2 SLP219 T00740048 10095 20068 53009
TAF
KACT 
21nm SE 
181120Z 1812/1912 36010KT P6SM FEW080 SCT250 FM190300 VRB02KT P6SM FEW250
NOTAMs
Click for the latest NOTAMs
NOTAMs are issued by the DoD/FAA and will open in a separate window not controlled by AirNav.

 

 
 

FBO, Fuel Providers, and Aircraft Ground Support

  
 Business Name 
 
 Contact 
 
 Services / Description 
 
Fuel Prices
 
Comments
  
Clifton Aero 254-675-3771
no information available

If you are affiliated with Clifton Aero and would like to show here your services, contact info, web link, logo, and more, click here
100LL
SS $4.06 
 Updated 14-Apr-2021
 
   1 read write
SS=Self service
Update Fuel Prices
 

Would you like to see your business listed on this page?

 If your business provides an interesting product or service to pilots, flight crews, aircraft, or users of the Clifton Municipal Airport/Isenhower Field, you should consider listing it here.  To start the listing process, click on the button below
 
Add a business
 

Other Pages about Clifton Municipal Airport/Isenhower Field

Update a link
 
Copyright © AirNav, LLC. All rights reserved. Privacy Policy  Contact